| time (UTC) | temp C | wind direction | speed KPH | gust KPH | rain 1hr cm | rain 24hr cm | rain mn cm | humidity % | barometer mb |
| 20260831021531 | 22 | 27 | 0.0 | 4.8 | 0.00 | 0.00 | 0.00 | 38 | 1017.6 |
| 20260831014529 | 23 | 19 | 1.6 | 6.4 | 0.00 | 0.00 | 0.00 | 33 | 1017.6 |
| 20260831013029 | 25 | 17 | 0.0 | 6.4 | 0.00 | 0.00 | 0.00 | 31 | 1017.6 |
| 20260831011529 | 26 | 35 | 0.0 | 6.4 | 0.00 | 0.00 | 0.00 | 30 | 1017.6 |
| 20260831010031 | 26 | 32 | 0.0 | 4.8 | 0.00 | 0.00 | 0.00 | 28 | 1017.8 |
| 20260831004530 | 27 | 28 | 0.0 | 8.0 | 0.00 | 0.00 | 0.00 | 27 | 1017.9 |
| 20260831003029 | 27 | 34 | 1.6 | 9.7 | 0.00 | 0.00 | 0.00 | 27 | 1017.9 |
| 20260831001529 | 27 | 34 | 0.0 | 6.4 | 0.00 | 0.00 | 0.00 | 27 | 1017.9 |
| 20260830234531 | 28 | 34 | 1.6 | 9.7 | 0.00 | 0.00 | 0.00 | 27 | 1018.1 |
| 20260830233031 | 27 | 39 | 1.6 | 8.0 | 0.00 | 0.00 | 0.00 | 27 | 1018.3 |
| 20260830231529 | 27 | 41 | 1.6 | 6.4 | 0.00 | 0.00 | 0.00 | 27 | 1018.3 |
| 20260830230029 | 27 | 41 | 1.6 | 6.4 | 0.00 | 0.00 | 0.00 | 27 | 1018.5 |
| 20260830223031 | 27 | 28 | 1.6 | 9.7 | 0.00 | 0.00 | 0.00 | 28 | 1018.9 |
| 20260830221531 | 27 | 47 | 1.6 | 8.0 | 0.00 | 0.00 | 0.00 | 29 | 1019.1 |
| 20260830220031 | 26 | 31 | 1.6 | 8.0 | 0.00 | 0.00 | 0.00 | 29 | 1019.5 |
| 20260830214607 | 27 | 29 | 1.6 | 9.7 | 0.00 | 0.00 | 0.00 | 29 | 1019.6 |
| 20260830211605 | 27 | 49 | 0.0 | 4.8 | 0.00 | 0.00 | 0.00 | 30 | 1019.8 |
| 20260830210030 | 27 | 50 | 0.0 | 6.4 | 0.00 | 0.00 | 0.00 | 31 | 1020.0 |
| 20260830204533 | 26 | 74 | 1.6 | 6.4 | 0.00 | 0.00 | 0.00 | 31 | 1020.1 |
| 20260830203029 | 27 | 41 | 1.6 | 6.4 | 0.00 | 0.00 | 0.00 | 31 | 1020.3 |
| 20260830200031 | 26 | 48 | 0.0 | 4.8 | 0.00 | 0.00 | 0.00 | 32 | 1020.5 |
| 20260830194530 | 26 | 53 | 0.0 | 6.4 | 0.00 | 0.00 | 0.00 | 33 | 1020.7 |
| 20260830193031 | 25 | 51 | 0.0 | 8.0 | 0.00 | 0.00 | 0.00 | 34 | 1020.9 |
| 20260830191531 | 25 | 61 | 0.0 | 4.8 | 0.00 | 0.00 | 0.00 | 34 | 1021.0 |
| 20260830190032 | 25 | 36 | 0.0 | 4.8 | 0.00 | 0.00 | 0.00 | 36 | 1021.3 |
| 20260830183031 | 23 | 37 | 0.0 | 6.4 | 0.00 | 0.00 | 0.00 | 39 | 1021.6 |
| 20260830181529 | 22 | 312 | 0.0 | 3.2 | 0.00 | 0.00 | 0.00 | 43 | 1021.7 |
| 20260830180106 | 20 | 33 | 0.0 | 3.2 | 0.00 | 0.00 | 0.00 | 45 | 1021.7 |
| 20260830171529 | 19 | 67 | 0.0 | 3.2 | 0.00 | 0.00 | 0.00 | 49 | 1022.1 |
| 20260830170033 | 18 | 52 | 0.0 | 3.2 | 0.00 | 0.00 | 0.00 | 52 | 1022.2 |
| 20260830164534 | 17 | 43 | 0.0 | 1.6 | 0.00 | 0.00 | 0.00 | 57 | 1022.4 |
| 20260830163031 | 15 | 44 | 0.0 | 3.2 | 0.00 | 0.00 | 0.00 | 62 | 1022.6 |
| 20260830161530 | 13 | 32 | 0.0 | 1.6 | 0.00 | 0.00 | 0.00 | 67 | 1022.9 |
| 20260830160031 | 12 | 307 | 0.0 | 3.2 | 0.00 | 0.00 | 0.00 | 71 | 1023.0 |
| 20260830154530 | 11 | 225 | 0.0 | 3.2 | 0.00 | 0.00 | 0.00 | 72 | 1023.0 |
| 20260830153029 | 10 | 225 | 1.6 | 3.2 | 0.00 | 0.00 | 0.00 | 73 | 1023.1 |
| 20260830151532 | 9 | 225 | 0.0 | 3.2 | 0.00 | 0.00 | 0.00 | 75 | 1023.1 |
| 20260830150028 | 8 | 225 | 1.6 | 3.2 | 0.00 | 0.00 | 0.00 | 78 | 1023.0 |
| 20260830144528 | 7 | 225 | 0.0 | 4.8 | 0.00 | 0.00 | 0.00 | 82 | 1023.0 |
| 20260830143104 | 6 | 225 | 0.0 | 3.2 | 0.00 | 0.00 | 0.00 | 84 | 1022.9 |
| 20260830140031 | 5 | 270 | 0.0 | 0.0 | 0.00 | 0.00 | 0.00 | 84 | 1022.5 |
| 20260830133035 | 5 | 251 | 1.6 | 4.8 | 0.00 | 0.00 | 0.00 | 83 | 1022.3 |
| 20260830131531 | 5 | 247 | 0.0 | 3.2 | 0.00 | 0.00 | 0.00 | 82 | 1022.3 |
| 20260830130029 | 6 | 253 | 0.0 | 3.2 | 0.00 | 0.00 | 0.00 | 80 | 1022.2 |
| 20260830123031 | 6 | 225 | 3.2 | 8.0 | 0.00 | 0.00 | 0.00 | 78 | 1022.1 |
| 20260830121530 | 7 | 226 | 3.2 | 6.4 | 0.00 | 0.00 | 0.00 | 77 | 1022.2 |
| 20260830114530 | 7 | 229 | 1.6 | 6.4 | 0.00 | 0.00 | 0.00 | 78 | 1022.1 |
| 20260830113029 | 7 | 225 | 1.6 | 6.4 | 0.00 | 0.00 | 0.00 | 77 | 1022.1 |
| 20260830111529 | 7 | 234 | 1.6 | 8.0 | 0.00 | 0.00 | 0.00 | 75 | 1022.0 |
| 20260830110032 | 8 | 278 | 0.0 | 6.4 | 0.00 | 0.00 | 0.00 | 75 | 1022.0 |
| 20260830104531 | 7 | 263 | 1.6 | 6.4 | 0.00 | 0.00 | 0.00 | 74 | 1022.0 |
| 20260830103144 | 8 | 251 | 1.6 | 4.8 | 0.00 | 0.00 | 0.00 | 72 | 1022.1 |
| 20260830101531 | 9 | 279 | 1.6 | 6.4 | 0.00 | 0.00 | 0.00 | 72 | 1022.0 |
| 20260830100031 | 8 | 288 | 1.6 | 6.4 | 0.00 | 0.00 | 0.00 | 77 | 1022.0 |
| 20260830094608 | 8 | 2 | 0.0 | 4.8 | 0.00 | 0.00 | 0.00 | 80 | 1021.9 |
| 20260830093106 | 9 | 22 | 0.0 | 0.0 | 0.00 | 0.00 | 0.00 | 77 | 1021.9 |
| 20260830091531 | 10 | 9 | 0.0 | 0.0 | 0.00 | 0.00 | 0.00 | 74 | 1022.0 |
| 20260830090033 | 10 | 271 | 0.0 | 3.2 | 0.00 | 0.00 | 0.00 | 73 | 1022.0 |
| 20260830084532 | 10 | 136 | 0.0 | 3.2 | 0.00 | 0.00 | 0.00 | 74 | 1022.0 |
| 20260830083106 | 10 | 61 | 0.0 | 3.2 | 0.00 | 0.00 | 0.00 | 74 | 1021.9 |
| 20260830081530 | 10 | 44 | 0.0 | 4.8 | 0.00 | 0.00 | 0.00 | 74 | 1021.8 |
| 20260830080031 | 10 | 27 | 0.0 | 3.2 | 0.00 | 0.00 | 0.00 | 71 | 1021.9 |
| 20260830074530 | 11 | 353 | 0.0 | 1.6 | 0.00 | 0.00 | 0.00 | 70 | 1021.9 |
| 20260830073032 | 11 | 295 | 0.0 | 4.8 | 0.00 | 0.00 | 0.00 | 70 | 1022.0 |
| 20260830071530 | 11 | 293 | 0.0 | 3.2 | 0.00 | 0.00 | 0.00 | 69 | 1021.9 |
| 20260830070145 | 11 | 307 | 0.0 | 4.8 | 0.00 | 0.00 | 0.00 | 69 | 1022.0 |
| 20260830064531 | 12 | 318 | 0.0 | 4.8 | 0.00 | 0.00 | 0.00 | 68 | 1021.9 |
| 20260830063031 | 12 | 301 | 0.0 | 4.8 | 0.00 | 0.00 | 0.00 | 68 | 1022.0 |
| 20260830061530 | 12 | 316 | 0.0 | 4.8 | 0.00 | 0.00 | 0.00 | 68 | 1022.0 |
| 20260830060030 | 12 | 338 | 0.0 | 6.4 | 0.00 | 0.00 | 0.00 | 70 | 1022.0 |
| 20260830054605 | 11 | 8 | 0.0 | 8.0 | 0.00 | 0.00 | 0.00 | 72 | 1022.0 |
| 20260830050109 | 10 | 55 | 0.0 | 0.0 | 0.00 | 0.00 | 0.00 | 77 | 1022.0 |
| 20260830044605 | 11 | 22 | 0.0 | 0.0 | 0.00 | 0.00 | 0.00 | 77 | 1021.9 |
| 20260830041536 | 11 | 45 | 0.0 | 0.0 | 0.00 | 0.00 | 0.00 | 73 | 1021.5 |
| 20260830033108 | 14 | 44 | 0.0 | 1.6 | 0.00 | 0.00 | 0.00 | 59 | 1021.0 |
| 20260830031645 | 15 | 14 | 0.0 | 8.0 | 0.00 | 0.00 | 0.00 | 58 | 1020.9 |
| 20260830030032 | 15 | 28 | 0.0 | 6.4 | 0.00 | 0.00 | 0.00 | 56 | 1021.0 |
| 20260830024531 | 16 | 38 | 0.0 | 8.0 | 0.00 | 0.00 | 0.00 | 54 | 1020.8 |
| 20260830023030 | 17 | 19 | 0.0 | 8.0 | 0.00 | 0.00 | 0.00 | 51 | 1020.7 |